• In Moldova, Republic
  • List of Countries
  • For 7 days
  • Water Temperature
  • Satellite Maps
  • Weather Map
  • Weather Widgets
  • user-avatar
    Login

    Hourly Weather Sidi Bu-l-Abbas

    Today, 27 April, Thursday

    Time Temperature Precipitation Wind Pressure Humidity
    00:00 +15°C° 0 mm 2 mps 715 mmHg 82%
    01:00 +15°C° 0 mm 1 mps 715 mmHg 83%
    02:00 +15°C° 0 mm 1 mps 715 mmHg 83%
    03:00 +15°C° 0 mm 1 mps 714 mmHg 84%
    04:00 +15°C° 0 mm 1 mps 714 mmHg 82%
    05:00 +15°C° 0 mm 1 mps 714 mmHg 80%
    06:00 +16°C° 0 mm 1 mps 714 mmHg 78%
    07:00 +19°C° 0 mm 1 mps 715 mmHg 67%
    08:00 +20°C° 0 mm 2 mps 715 mmHg 56%
    09:00 +24°C° 0 mm 2 mps 716 mmHg 46%
    10:00 +25°C° 0 mm 3 mps 716 mmHg 43%
    11:00 +26°C° 0 mm 4 mps 716 mmHg 40%
    12:00 +26°C° 0 mm 4 mps 716 mmHg 38%
    13:00 +26°C° 0 mm 4 mps 716 mmHg 39%
    14:00 +26°C° 0 mm 4 mps 716 mmHg 41%
    15:00 +25°C° 0 mm 4 mps 716 mmHg 42%
    16:00 +23°C° 0 mm 4 mps 716 mmHg 47%
    17:00 +21°C° 0 mm 3 mps 716 mmHg 52%
    18:00 +20°C° 0 mm 3 mps 716 mmHg 57%
    19:00 +18°C° 0 mm 3 mps 716 mmHg 66%
    20:00 +16°C° 0 mm 2 mps 717 mmHg 76%
    21:00 +14°C° 0 mm 2 mps 717 mmHg 85%
    22:00 +14°C° 0 mm 2 mps 717 mmHg 87%
    23:00 +13°C° 0 mm 2 mps 717 mmHg 89%

    Tomorrow, 28 April, Friday

    Time Temperature Precipitation Wind Pressure Humidity
    00:00 +13°C° 0 mm 2 mps 717 mmHg 91%
    01:00 +13°C° 0 mm 2 mps 717 mmHg 91%
    02:00 +13°C° 0 mm 2 mps 717 mmHg 90%
    03:00 +13°C° 0 mm 2 mps 716 mmHg 89%
    04:00 +13°C° 0 mm 2 mps 716 mmHg 89%
    05:00 +14°C° 0 mm 2 mps 716 mmHg 88%
    06:00 +14°C° 0 mm 2 mps 716 mmHg 88%
    07:00 +16°C° 0 mm 2 mps 717 mmHg 79%
    08:00 +17°C° 0 mm 2 mps 717 mmHg 70%
    09:00 +19°C° 0 mm 3 mps 718 mmHg 61%
    10:00 +21°C° 0.1 mm 3 mps 718 mmHg 57%
    11:00 +22°C° 0.1 mm 3 mps 718 mmHg 53%
    12:00 +23°C° 0.1 mm 4 mps 717 mmHg 49%
    13:00 +23°C° 0.1 mm 4 mps 717 mmHg 49%
    14:00 +23°C° 0.1 mm 4 mps 717 mmHg 49%
    15:00 +23°C° 0.1 mm 4 mps 716 mmHg 50%
    16:00 +22°C° 0.2 mm 4 mps 716 mmHg 55%
    17:00 +21°C° 0.2 mm 4 mps 716 mmHg 61%
    18:00 +20°C° 0.2 mm 4 mps 716 mmHg 67%
    19:00 +18°C° 0 mm 3 mps 716 mmHg 73%
    20:00 +17°C° 0 mm 3 mps 717 mmHg 79%
    21:00 +16°C° 0 mm 2 mps 717 mmHg 86%
    22:00 +16°C° 0.3 mm 2 mps 717 mmHg 87%
    23:00 +15°C° 0.3 mm 1 mps 717 mmHg 88%

    Day after tomorrow, 29 April, Saturday

    Time Temperature Precipitation Wind Pressure Humidity
    00:00 +15°C° 0.3 mm 1 mps 717 mmHg 89%
    01:00 +15°C° 0.3 mm 1 mps 717 mmHg 90%
    02:00 +15°C° 0.3 mm 1 mps 717 mmHg 90%
    03:00 +15°C° 0.3 mm 1 mps 717 mmHg 91%
    04:00 +15°C° 0 mm 1 mps 717 mmHg 91%
    05:00 +14°C° 0 mm 1 mps 717 mmHg 91%
    06:00 +14°C° 0 mm 1 mps 717 mmHg 92%
    07:00 +16°C° 0 mm 1 mps 717 mmHg 82%
    08:00 +19°C° 0 mm 1 mps 718 mmHg 73%
    09:00 +21°C° 0 mm 1 mps 718 mmHg 63%
    10:00 +21°C° 0 mm 2 mps 718 mmHg 57%
    11:00 +24°C° 0 mm 3 mps 718 mmHg 50%
    12:00 +25°C° 0 mm 4 mps 718 mmHg 44%
    13:00 +25°C° 0 mm 4 mps 718 mmHg 44%
    14:00 +25°C° 0 mm 4 mps 718 mmHg 44%
    15:00 +25°C° 0 mm 4 mps 717 mmHg 44%
    16:00 +24°C° 0 mm 3 mps 717 mmHg 48%
    17:00 +22°C° 0 mm 3 mps 717 mmHg 53%
    18:00 +21°C° 0 mm 2 mps 717 mmHg 57%
    19:00 +19°C° 0 mm 2 mps 717 mmHg 65%
    20:00 +18°C° 0 mm 1 mps 717 mmHg 74%
    21:00 +14°C° 0 mm 0 mps 718 mmHg 83%
    22:00 +15°C° 0 mm 1 mps 718 mmHg 83%
    23:00 +15°C° 0 mm 1 mps 718 mmHg 83%

    30 April, Sunday

    Time Temperature Precipitation Wind Pressure Humidity
    00:00 +15°C° 0 mm 1 mps 718 mmHg 83%
    01:00 +15°C° 0 mm 1 mps 718 mmHg 82%
    02:00 +15°C° 0 mm 1 mps 717 mmHg 82%
    03:00 +15°C° 0 mm 1 mps 717 mmHg 82%
    04:00 +15°C° 0 mm 1 mps 717 mmHg 83%
    05:00 +15°C° 0 mm 1 mps 718 mmHg 84%
    06:00 +15°C° 0 mm 1 mps 718 mmHg 84%
    07:00 +18°C° 0 mm 1 mps 718 mmHg 75%
    08:00 +20°C° 0 mm 1 mps 719 mmHg 66%
    09:00 +20°C° 0 mm 2 mps 720 mmHg 57%
    10:00 +21°C° 0 mm 3 mps 719 mmHg 54%
    11:00 +22°C° 0 mm 3 mps 719 mmHg 51%
    12:00 +23°C° 0 mm 4 mps 719 mmHg 48%
    13:00 +23°C° 0 mm 4 mps 719 mmHg 49%
    14:00 +23°C° 0 mm 5 mps 719 mmHg 50%
    15:00 +23°C° 0 mm 5 mps 719 mmHg 51%
    16:00 +21°C° 0 mm 5 mps 719 mmHg 56%
    17:00 +20°C° 0 mm 4 mps 719 mmHg 60%
    18:00 +19°C° 0 mm 4 mps 718 mmHg 64%
    19:00 +17°C° 0 mm 3 mps 719 mmHg 71%
    20:00 +16°C° 0 mm 3 mps 720 mmHg 78%
    21:00 +14°C° 0 mm 2 mps 720 mmHg 85%
    22:00 +14°C° 0 mm 2 mps 720 mmHg 86%
    23:00 +13°C° 0 mm 2 mps 720 mmHg 87%

    1 May, Monday

    Time Temperature Precipitation Wind Pressure Humidity
    00:00 +13°C° 0 mm 2 mps 720 mmHg 87%
    01:00 +13°C° 0 mm 2 mps 720 mmHg 88%
    02:00 +12°C° 0 mm 2 mps 720 mmHg 88%
    03:00 +12°C° 0 mm 2 mps 720 mmHg 89%
    04:00 +12°C° 0 mm 2 mps 720 mmHg 87%
    05:00 +13°C° 0 mm 2 mps 720 mmHg 85%
    06:00 +13°C° 0 mm 2 mps 720 mmHg 83%
    07:00 +15°C° 0 mm 2 mps 721 mmHg 71%
    08:00 +18°C° 0 mm 3 mps 722 mmHg 60%
    09:00 +20°C° 0 mm 3 mps 722 mmHg 48%
    10:00 +21°C° 0 mm 3 mps 722 mmHg 45%
    11:00 +22°C° 0 mm 4 mps 722 mmHg 43%
    12:00 +23°C° 0 mm 4 mps 722 mmHg 40%
    13:00 +23°C° 0 mm 4 mps 722 mmHg 42%
    14:00 +23°C° 0 mm 4 mps 722 mmHg 43%
    15:00 +23°C° 0 mm 4 mps 721 mmHg 44%
    16:00 +22°C° 0 mm 3 mps 721 mmHg 49%
    17:00 +21°C° 0 mm 3 mps 721 mmHg 53%
    18:00 +20°C° 0 mm 3 mps 721 mmHg 58%
    19:00 +18°C° 0 mm 2 mps 722 mmHg 68%
    20:00 +16°C° 0 mm 2 mps 722 mmHg 78%
    21:00 +14°C° 0 mm 1 mps 722 mmHg 88%
    22:00 +13°C° 0 mm 1 mps 722 mmHg 88%
    23:00 +13°C° 0 mm 1 mps 722 mmHg 89%

    2 May, Tuesday

    Time Temperature Precipitation Wind Pressure Humidity
    00:00 +12°C° 0 mm 1 mps 721 mmHg 89%
    01:00 +12°C° 0 mm 1 mps 721 mmHg 89%
    02:00 +12°C° 0 mm 1 mps 721 mmHg 90%
    03:00 +11°C° 0 mm 1 mps 721 mmHg 90%
    04:00 +12°C° 0 mm 1 mps 721 mmHg 88%
    05:00 +13°C° 0 mm 1 mps 721 mmHg 86%
    06:00 +14°C° 0 mm 1 mps 721 mmHg 84%
    07:00 +18°C° 0 mm 1 mps 721 mmHg 70%
    08:00 +21°C° 0 mm 1 mps 722 mmHg 56%
    09:00 +24°C° 0 mm 2 mps 722 mmHg 41%
    10:00 +25°C° 0 mm 2 mps 722 mmHg 37%
    11:00 +27°C° 0 mm 2 mps 721 mmHg 32%
    12:00 +28°C° 0 mm 3 mps 721 mmHg 27%
    13:00 +28°C° 0 mm 3 mps 721 mmHg 27%
    14:00 +29°C° 0 mm 4 mps 720 mmHg 26%
    15:00 +29°C° 0 mm 4 mps 719 mmHg 26%
    16:00 +27°C° 0 mm 4 mps 719 mmHg 29%
    17:00 +26°C° 0 mm 4 mps 719 mmHg 32%
    18:00 +25°C° 0 mm 4 mps 719 mmHg 34%
    19:00 +21°C° 0 mm 3 mps 719 mmHg 41%
    20:00 +19°C° 0 mm 2 mps 719 mmHg 47%
    21:00 +16°C° 0 mm 2 mps 719 mmHg 54%
    22:00 +16°C° 0 mm 1 mps 718 mmHg 55%
    23:00 +15°C° 0 mm 1 mps 718 mmHg 55%
    Show more